Location: Ajisawe
(8.4333°N, 4.3833°E)
Time: 02:14:29
(UTC+00:00)

Vanguard 2 - All Passes

Search period start: 21 April 2021 00:00
Search period end: 01 May 2021 00:00
Orbit: 552 x 2938 km, 32.9° (Epoch: 20 April)

Date Brightness Start Highest point End Pass type
(mag) Time Alt. Az. Time Alt. Az. Time Alt. Az.
21 Apr - 05:55:55 10° SSW 06:07:02 25° SE 06:20:09 10° E daylight
21 Apr - 08:03:21 10° SW 08:19:48 68° SE 08:36:55 10° ENE daylight
21 Apr - 10:15:38 10° WSW 10:33:13 59° NNW 10:47:55 10° NE daylight
21 Apr - 12:33:59 10° WNW 12:47:03 28° NNW 12:56:50 10° NNE daylight
21 Apr - 14:54:40 10° NW 15:01:05 16° N 15:06:06 10° NNE daylight
21 Apr - 17:07:49 10° NNW 17:13:30 21° NNE 17:17:39 10° ENE daylight
21 Apr - 19:17:35 10° WNW 19:23:04 85° SW 19:27:08 10° SE visible
22 Apr - 06:12:33 10° SSW 06:25:05 34° SE 06:40:11 10° E daylight
22 Apr - 08:21:01 10° SW 08:37:48 83° SE 08:55:05 10° ENE daylight
22 Apr - 10:34:31 10° W 10:51:30 49° NNW 11:05:35 10° NE daylight
22 Apr - 12:54:04 10° WNW 13:05:50 24° NNW 13:14:44 10° NNE daylight
22 Apr - 15:13:19 10° NW 15:19:56 17° N 15:25:01 10° NE daylight
22 Apr - 17:25:15 10° NW 17:31:51 30° NNE 17:36:22 10° E daylight
22 Apr - 19:35:41 10° WNW 19:40:42 43° SW 19:44:35 10° SE visible
23 Apr - 04:26:45 10° SSE 04:30:52 12° SE 04:35:24 10° SE visible
23 Apr - 06:29:30 10° SSW 06:43:00 45° SE 06:59:30 10° ENE daylight
23 Apr - 08:38:57 10° WSW 08:55:52 82° NW 09:13:04 10° NE daylight
23 Apr - 10:53:46 10° W 11:09:58 40° NNW 11:23:17 10° NE daylight
23 Apr - 13:14:05 10° NW 13:24:46 22° NNW 13:32:53 10° NE daylight
23 Apr - 15:31:27 10° NW 15:38:44 20° N 15:44:03 10° NE daylight
23 Apr - 17:42:48 10° NW 17:50:01 45° NNE 17:54:42 10° E daylight
23 Apr - 19:54:19 10° W 19:58:15 22° SW 20:01:31 10° SSE visible
24 Apr - 04:41:19 10° S 04:49:05 18° SE 04:58:33 10° ESE visible
24 Apr - 06:46:42 10° SW 07:00:52 58° SE 07:18:19 10° ENE daylight
24 Apr - 08:57:10 10° WSW 09:14:02 68° NNW 09:30:54 10° NE daylight
24 Apr - 11:13:21 10° W 11:28:37 34° NNW 11:41:05 10° NE daylight
24 Apr - 13:33:44 10° NW 13:43:47 21° N 13:51:23 10° NE daylight
24 Apr - 15:49:17 10° NW 15:57:24 24° NNE 16:03:00 10° ENE daylight
24 Apr - 18:00:33 10° NW 18:07:59 73° NNE 18:12:42 10° ESE visible
24 Apr - 20:14:18 10° WSW 20:15:47 11° SW 20:17:12 10° SSW visible
25 Apr - 04:57:24 10° S 05:07:03 26° SE 05:19:31 10° E visible
25 Apr - 07:04:08 10° SW 07:18:45 73° SE 07:36:44 10° ENE daylight
25 Apr - 09:15:42 10° WSW 09:32:21 56° NNW 09:48:41 10° NE daylight
25 Apr - 11:33:11 10° WNW 11:47:29 29° NNW 11:59:03 10° NE daylight
25 Apr - 13:52:54 10° NW 14:02:49 21° N 14:10:10 10° NE daylight
25 Apr - 16:07:00 10° NW 16:15:55 32° NNE 16:21:42 10° E daylight
25 Apr - 18:18:33 10° WNW 18:25:43 67° SW 18:30:21 10° SE visible
26 Apr - 05:14:01 10° SSW 05:24:51 35° SE 05:39:27 10° E daylight
26 Apr - 07:21:50 10° SW 07:36:43 89° SE 07:54:55 10° NE daylight
26 Apr - 09:34:35 10° W 09:50:50 46° NNW 10:06:29 10° NE daylight
26 Apr - 11:53:05 10° WNW 12:06:31 26° NNW 12:17:15 10° NE daylight
26 Apr - 14:11:33 10° NW 14:21:47 23° N 14:29:06 10° NE daylight
26 Apr - 16:24:43 10° NW 16:34:15 43° NNE 16:40:08 10° E daylight
26 Apr - 18:36:54 10° WNW 18:43:16 38° SW 18:47:37 10° SSE visible
27 Apr - 03:30:10 10° SSE 03:31:51 10° SE 03:33:39 10° SE visible
27 Apr - 05:30:58 10° SSW 05:42:33 47° SE 05:58:41 10° ENE daylight
27 Apr - 07:39:47 10° WSW 07:54:48 76° NNW 08:12:55 10° NE daylight
27 Apr - 09:53:47 10° W 10:09:32 39° NNW 10:24:21 10° NE daylight
27 Apr - 12:12:51 10° NW 12:25:40 25° N 12:35:46 10° NE daylight
27 Apr - 14:29:48 10° NW 14:40:38 27° NNE 14:48:02 10° ENE daylight
27 Apr - 16:42:31 10° NW 16:52:24 62° NNE 16:58:15 10° ESE daylight
27 Apr - 18:55:50 10° W 19:00:42 22° SW 19:04:23 10° S visible
28 Apr - 03:43:31 10° S 03:49:48 17° SE 03:57:41 10° ESE visible
28 Apr - 05:48:11 10° SW 06:00:16 61° SE 06:17:26 10° ENE daylight
28 Apr - 07:58:02 10° WSW 08:13:04 62° NNW 08:30:48 10° NE daylight
28 Apr - 10:13:16 10° WNW 10:28:26 34° NNW 10:42:22 10° NE daylight
28 Apr - 12:32:16 10° NW 12:44:51 25° N 12:54:33 10° NE daylight
28 Apr - 14:47:48 10° NW 14:59:19 34° NNE 15:06:48 10° E daylight
28 Apr - 17:00:28 10° WNW 17:10:18 89° SW 17:16:04 10° SE daylight
28 Apr - 19:16:10 10° WSW 19:18:08 12° SW 19:19:55 10° SSW visible
29 Apr - 03:59:29 10° S 04:07:30 25° SE 04:18:32 10° E visible
29 Apr - 06:05:40 10° SW 06:18:04 78° SE 06:35:49 10° ENE daylight
29 Apr - 08:16:35 10° W 08:31:32 52° NNW 08:48:40 10° NE daylight
29 Apr - 10:32:56 10° WNW 10:47:32 30° NNW 11:00:38 10° NE daylight
29 Apr - 12:51:14 10° NW 13:04:00 26° N 13:13:31 10° ENE daylight
29 Apr - 15:05:42 10° NW 15:17:50 43° NNE 15:25:20 10° E daylight
29 Apr - 17:18:41 10° WNW 17:27:58 58° SW 17:33:34 10° SE daylight
30 Apr - 04:16:05 10° SSW 04:25:05 35° SE 04:38:19 10° ENE visible
30 Apr - 06:23:24 10° WSW 06:36:01 85° NW 06:53:59 10° NE daylight
30 Apr - 08:35:26 10° W 08:50:12 43° NNW 09:06:36 10° NE daylight
30 Apr - 10:52:35 10° WNW 11:06:47 28° N 11:19:11 10° NE daylight
30 Apr - 13:09:48 10° NW 13:23:02 30° N 13:32:31 10° ENE daylight
30 Apr - 15:23:34 10° NW 15:36:09 57° NNE 15:43:35 10° ESE daylight
30 Apr - 17:37:16 10° WNW 17:45:27 36° SW 17:50:43 10° SSE daylight
